| time (UTC) | temp C | wind direction | speed KPH | gust KPH | rain 1hr cm | rain 24hr cm | rain mn cm | humidity % | barometer mb |
| 20260504050404 | 6 | 90 | 0.0 | 0.0 | 0.00 | 0.00 | 0.00 | 85 | 1015.8 |
| 20260504045900 | 6 | 90 | 0.0 | 0.0 | 0.00 | 0.00 | 0.00 | 84 | 1015.9 |
| 20260504045356 | 6 | 90 | 0.0 | 3.2 | 0.00 | 0.00 | 0.00 | 84 | 1015.9 |
| 20260504044853 | 6 | 66 | 0.0 | 1.6 | 0.00 | 0.00 | 0.00 | 84 | 1016.0 |
| 20260504044350 | 6 | 82 | 0.0 | 1.6 | 0.00 | 0.00 | 0.00 | 84 | 1015.8 |
| 20260504043848 | 6 | 84 | 1.6 | 3.2 | 0.00 | 0.00 | 0.00 | 83 | 1015.8 |
| 20260504043344 | 6 | 75 | 0.0 | 3.2 | 0.00 | 0.00 | 0.00 | 83 | 1015.9 |
| 20260504042842 | 6 | 74 | 0.0 | 0.0 | 0.00 | 0.00 | 0.00 | 83 | 1015.8 |
| 20260504042338 | 6 | 74 | 0.0 | 0.0 | 0.00 | 0.00 | 0.00 | 82 | 1015.9 |
| 20260504041834 | 6 | 90 | 0.0 | 0.0 | 0.00 | 0.00 | 0.00 | 81 | 1015.9 |
| 20260504041331 | 6 | 90 | 0.0 | 0.0 | 0.00 | 0.00 | 0.00 | 82 | 1015.9 |
| 20260504040827 | 6 | 90 | 0.0 | 0.0 | 0.00 | 0.00 | 0.00 | 80 | 1015.7 |
| 20260504040325 | 6 | 97 | 0.0 | 1.6 | 0.00 | 0.00 | 0.00 | 81 | 1015.6 |
| 20260504035820 | 6 | 90 | 0.0 | 1.6 | 0.00 | 0.00 | 0.00 | 81 | 1015.8 |
| 20260504035318 | 6 | 103 | 1.6 | 1.6 | 0.00 | 0.00 | 0.00 | 83 | 1015.9 |
| 20260504034815 | 5 | 74 | 0.0 | 0.0 | 0.00 | 0.00 | 0.00 | 83 | 1015.8 |
| 20260504034313 | 5 | 74 | 0.0 | 0.0 | 0.00 | 0.00 | 0.00 | 83 | 1015.9 |
| 20260504033810 | 5 | 74 | 0.0 | 0.0 | 0.00 | 0.00 | 0.00 | 83 | 1015.9 |
| 20260504033307 | 5 | 74 | 0.0 | 0.0 | 0.00 | 0.00 | 0.00 | 82 | 1016.0 |
| 20260504032803 | 5 | 75 | 0.0 | 0.0 | 0.00 | 0.00 | 0.00 | 83 | 1016.0 |
| 20260504032301 | 5 | 66 | 0.0 | 0.0 | 0.00 | 0.00 | 0.00 | 84 | 1015.9 |
| 20260504031757 | 5 | 66 | 0.0 | 0.0 | 0.00 | 0.00 | 0.00 | 85 | 1016.0 |
| 20260504031255 | 5 | 66 | 0.0 | 0.0 | 0.00 | 0.00 | 0.00 | 81 | 1015.8 |
| 20260504030751 | 5 | 66 | 0.0 | 0.0 | 0.00 | 0.00 | 0.00 | 83 | 1015.9 |
| 20260504030248 | 5 | 66 | 0.0 | 0.0 | 0.00 | 0.00 | 0.00 | 83 | 1016.1 |
| 20260504025745 | 5 | 66 | 0.0 | 0.0 | 0.00 | 0.00 | 0.00 | 82 | 1016.1 |
| 20260504025242 | 5 | 66 | 0.0 | 1.6 | 0.00 | 0.00 | 0.00 | 80 | 1016.2 |
| 20260504024738 | 5 | 157 | 0.0 | 0.0 | 0.00 | 0.00 | 0.00 | 81 | 1016.1 |
| 20260504024235 | 5 | 157 | 0.0 | 0.0 | 0.00 | 0.00 | 0.00 | 81 | 1016.1 |
| 20260504023732 | 5 | 157 | 0.0 | 0.0 | 0.00 | 0.00 | 0.00 | 81 | 1016.2 |
| 20260504023228 | 6 | 74 | 0.0 | 0.0 | 0.00 | 0.00 | 0.00 | 80 | 1016.2 |
| 20260504022724 | 6 | 74 | 0.0 | 0.0 | 0.00 | 0.00 | 0.00 | 78 | 1016.1 |
| 20260504022220 | 6 | 74 | 0.0 | 0.0 | 0.00 | 0.00 | 0.00 | 79 | 1016.0 |
| 20260504021718 | 6 | 74 | 0.0 | 0.0 | 0.00 | 0.00 | 0.00 | 82 | 1016.1 |
| 20260504021215 | 6 | 74 | 0.0 | 0.0 | 0.00 | 0.00 | 0.00 | 79 | 1015.9 |
| 20260504020711 | 6 | 74 | 0.0 | 0.0 | 0.00 | 0.00 | 0.00 | 77 | 1016.0 |
| 20260504020207 | 7 | 74 | 0.0 | 0.0 | 0.00 | 0.00 | 0.00 | 77 | 1015.8 |
| 20260504015704 | 7 | 74 | 0.0 | 0.0 | 0.00 | 0.00 | 0.00 | 74 | 1015.9 |
| 20260504015201 | 7 | 74 | 0.0 | 0.0 | 0.00 | 0.00 | 0.00 | 70 | 1016.0 |
| 20260504014656 | 7 | 74 | 0.0 | 0.0 | 0.00 | 0.00 | 0.00 | 72 | 1015.9 |
| 20260504014154 | 7 | 74 | 0.0 | 0.0 | 0.00 | 0.00 | 0.00 | 68 | 1015.9 |
| 20260504013652 | 8 | 74 | 0.0 | 0.0 | 0.00 | 0.00 | 0.00 | 69 | 1015.9 |
| 20260504013148 | 8 | 74 | 0.0 | 0.0 | 0.00 | 0.00 | 0.00 | 68 | 1015.8 |
| 20260504012645 | 8 | 74 | 0.0 | 0.0 | 0.00 | 0.00 | 0.00 | 66 | 1015.9 |
| 20260504012143 | 8 | 74 | 0.0 | 0.0 | 0.00 | 0.00 | 0.00 | 68 | 1015.8 |
| 20260504011640 | 8 | 74 | 0.0 | 0.0 | 0.00 | 0.00 | 0.00 | 63 | 1015.7 |
| 20260504011137 | 9 | 243 | 0.0 | 0.0 | 0.00 | 0.00 | 0.00 | 65 | 1015.6 |
| 20260504010632 | 9 | 278 | 0.0 | 0.0 | 0.00 | 0.00 | 0.00 | 63 | 1016.2 |
| 20260504010128 | 8 | 278 | 0.0 | 0.0 | 0.00 | 0.00 | 0.00 | 63 | 1015.8 |
| 20260504005625 | 9 | 278 | 0.0 | 1.6 | 0.00 | 0.00 | 0.00 | 67 | 1015.7 |
| 20260504005122 | 9 | 165 | 0.0 | 0.0 | 0.00 | 0.00 | 0.00 | 63 | 1015.6 |
| 20260504004620 | 10 | 249 | 0.0 | 0.0 | 0.00 | 0.00 | 0.00 | 61 | 1015.7 |
| 20260504004117 | 10 | 209 | 0.0 | 0.0 | 0.00 | 0.00 | 0.00 | 59 | 1015.7 |
| 20260504003613 | 10 | 188 | 0.0 | 0.0 | 0.00 | 0.00 | 0.00 | 55 | 1015.6 |
| 20260504003110 | 10 | 262 | 0.0 | 1.6 | 0.00 | 0.00 | 0.00 | 55 | 1015.4 |
| 20260504002607 | 10 | 81 | 0.0 | 0.0 | 0.00 | 0.00 | 0.00 | 54 | 1015.6 |
| 20260504002104 | 11 | 279 | 0.0 | 0.0 | 0.00 | 0.00 | 0.00 | 54 | 1015.3 |
| 20260504001602 | 11 | 261 | 0.0 | 0.0 | 0.00 | 0.00 | 0.00 | 51 | 1015.4 |
| 20260504001057 | 11 | 261 | 0.0 | 1.6 | 0.00 | 0.00 | 0.00 | 53 | 1015.6 |
| 20260504000555 | 11 | 99 | 0.0 | 0.0 | 0.00 | 0.00 | 0.00 | 52 | 1015.6 |
| 20260504000053 | 12 | 249 | 0.0 | 1.6 | 0.00 | 0.00 | 0.00 | 49 | 1015.6 |
| 20260503235550 | 12 | 257 | 0.0 | 0.0 | 0.00 | 0.00 | 0.00 | 50 | 1015.6 |
| 20260503235047 | 12 | 279 | 0.0 | 0.0 | 0.00 | 0.00 | 0.00 | 48 | 1015.4 |
| 20260503234544 | 12 | 331 | 0.0 | 0.0 | 0.00 | 0.00 | 0.00 | 46 | 1015.6 |
| 20260503234042 | 13 | 221 | 0.0 | 3.2 | 0.00 | 0.00 | 0.00 | 45 | 1015.4 |
| 20260503233538 | 12 | 191 | 0.0 | 3.2 | 0.00 | 0.00 | 0.00 | 42 | 1015.4 |
| 20260503233035 | 13 | 234 | 0.0 | 1.6 | 0.00 | 0.00 | 0.00 | 42 | 1015.7 |
| 20260503232532 | 13 | 40 | 0.0 | 3.2 | 0.00 | 0.00 | 0.00 | 42 | 1015.8 |
| 20260503232029 | 13 | 246 | 3.2 | 11.3 | 0.00 | 0.00 | 0.00 | 41 | 1015.6 |
| 20260503231527 | 13 | 255 | 3.2 | 8.0 | 0.00 | 0.00 | 0.00 | 38 | 1015.4 |
| 20260503231024 | 13 | 257 | 4.8 | 6.4 | 0.00 | 0.00 | 0.00 | 40 | 1015.6 |
| 20260503230520 | 13 | 259 | 4.8 | 4.8 | 0.00 | 0.00 | 0.00 | 38 | 1015.8 |
| 20260503230018 | 13 | 227 | 4.8 | 6.4 | 0.00 | 0.00 | 0.00 | 39 | 1015.4 |
| 20260503225514 | 13 | 326 | 6.4 | 9.7 | 0.00 | 0.00 | 0.00 | 38 | 1015.2 |
| 20260503225009 | 14 | 320 | 3.2 | 11.3 | 0.00 | 0.00 | 0.00 | 40 | 1015.4 |
| 20260503224507 | 14 | 228 | 9.7 | 9.7 | 0.00 | 0.00 | 0.00 | 36 | 1015.6 |
| 20260503224005 | 15 | 186 | 0.0 | 8.0 | 0.00 | 0.00 | 0.00 | 39 | 1015.7 |
| 20260503223503 | 15 | 248 | 3.2 | 11.3 | 0.00 | 0.00 | 0.00 | 36 | 1015.6 |
| 20260503222958 | 15 | 328 | 3.2 | 9.7 | 0.00 | 0.00 | 0.00 | 35 | 1015.6 |
| 20260503222457 | 15 | 274 | 0.0 | 16.1 | 0.00 | 0.00 | 0.00 | 34 | 1015.6 |
| 20260503221955 | 16 | 268 | 6.4 | 14.5 | 0.00 | 0.00 | 0.00 | 35 | 1015.6 |
| 20260503221453 | 16 | 315 | 4.8 | 8.0 | 0.00 | 0.00 | 0.00 | 36 | 1015.8 |
| 20260503220949 | 16 | 70 | 0.0 | 8.0 | 0.00 | 0.00 | 0.00 | 37 | 1015.7 |
| 20260503220445 | 16 | 282 | 3.2 | 8.0 | 0.00 | 0.00 | 0.00 | 32 | 1015.7 |
| 20260503215943 | 16 | 126 | 1.6 | 12.9 | 0.00 | 0.00 | 0.00 | 33 | 1015.9 |
| 20260503215440 | 16 | 270 | 4.8 | 8.0 | 0.00 | 0.00 | 0.00 | 34 | 1015.9 |
| 20260503214937 | 16 | 10 | 0.0 | 8.0 | 0.00 | 0.00 | 0.00 | 35 | 1015.7 |
| 20260503214435 | 16 | 276 | 1.6 | 4.8 | 0.00 | 0.00 | 0.00 | 37 | 1015.6 |
| 20260503213932 | 16 | 275 | 9.7 | 9.7 | 0.00 | 0.00 | 0.00 | 36 | 1015.7 |
| 20260503213430 | 16 | 241 | 0.0 | 8.0 | 0.00 | 0.00 | 0.00 | 37 | 1015.6 |
| 20260503212926 | 16 | 75 | 0.0 | 8.0 | 0.00 | 0.00 | 0.00 | 32 | 1015.6 |
| 20260503212424 | 16 | 137 | 6.4 | 9.7 | 0.00 | 0.00 | 0.00 | 36 | 1015.7 |
| 20260503211921 | 16 | 261 | 3.2 | 16.1 | 0.00 | 0.00 | 0.00 | 38 | 1015.7 |
| 20260503211418 | 16 | 272 | 8.0 | 11.3 | 0.00 | 0.00 | 0.00 | 37 | 1015.7 |
| 20260503210913 | 16 | 237 | 8.0 | 16.1 | 0.00 | 0.00 | 0.00 | 38 | 1015.8 |
| 20260503210410 | 16 | 231 | 3.2 | 12.9 | 0.00 | 0.00 | 0.00 | 34 | 1015.7 |
| 20260503205904 | 16 | 267 | 4.8 | 9.7 | 0.00 | 0.00 | 0.00 | 35 | 1015.7 |
| 20260503205401 | 15 | 252 | 3.2 | 9.7 | 0.00 | 0.00 | 0.00 | 37 | 1015.9 |
| 20260503204858 | 16 | 292 | 3.2 | 24.1 | 0.00 | 0.00 | 0.00 | 36 | 1015.9 |
| 20260503204355 | 16 | 273 | 6.4 | 9.7 | 0.00 | 0.00 | 0.00 | 32 | 1015.9 |
| 20260503203852 | 16 | 283 | 6.4 | 11.3 | 0.00 | 0.00 | 0.00 | 37 | 1015.9 |
| 20260503203349 | 16 | 254 | 8.0 | 20.9 | 0.00 | 0.00 | 0.00 | 40 | 1016.0 |
| 20260503202846 | 15 | 270 | 3.2 | 20.9 | 0.00 | 0.00 | 0.00 | 37 | 1016.2 |
| 20260503202345 | 16 | 251 | 9.7 | 12.9 | 0.00 | 0.00 | 0.00 | 35 | 1016.0 |
| 20260503201843 | 16 | 146 | 4.8 | 11.3 | 0.00 | 0.00 | 0.00 | 35 | 1016.2 |
| 20260503201339 | 16 | 303 | 3.2 | 9.7 | 0.00 | 0.00 | 0.00 | 37 | 1016.5 |
| 20260503200837 | 15 | 266 | 3.2 | 14.5 | 0.00 | 0.00 | 0.00 | 37 | 1016.4 |
| 20260503200332 | 15 | 246 | 0.0 | 11.3 | 0.00 | 0.00 | 0.00 | 38 | 1016.5 |
| 20260503195830 | 16 | 56 | 3.2 | 6.4 | 0.00 | 0.00 | 0.00 | 38 | 1016.5 |
| 20260503195326 | 16 | 266 | 11.3 | 12.9 | 0.00 | 0.00 | 0.00 | 37 | 1016.8 |
| 20260503194824 | 16 | 330 | 3.2 | 9.7 | 0.00 | 0.00 | 0.00 | 37 | 1016.7 |
| 20260503194319 | 14 | 194 | 0.0 | 6.4 | 0.00 | 0.00 | 0.00 | 37 | 1016.9 |
| 20260503193816 | 15 | 125 | 4.8 | 6.4 | 0.00 | 0.00 | 0.00 | 33 | 1016.9 |
| 20260503193312 | 16 | 21 | 4.8 | 16.1 | 0.00 | 0.00 | 0.00 | 36 | 1017.1 |
| 20260503192808 | 16 | 254 | 3.2 | 16.1 | 0.00 | 0.00 | 0.00 | 33 | 1017.3 |
| 20260503192305 | 15 | 263 | 4.8 | 8.0 | 0.00 | 0.00 | 0.00 | 36 | 1017.0 |
| 20260503191800 | 15 | 242 | 4.8 | 11.3 | 0.00 | 0.00 | 0.00 | 35 | 1017.5 |
| 20260503191257 | 14 | 209 | 3.2 | 8.0 | 0.00 | 0.00 | 0.00 | 39 | 1017.2 |
| 20260503190754 | 15 | 270 | 9.7 | 12.9 | 0.00 | 0.00 | 0.00 | 36 | 1017.4 |
| 20260503190250 | 13 | 227 | 4.8 | 16.1 | 0.00 | 0.00 | 0.00 | 37 | 1017.5 |
| 20260503185748 | 15 | 273 | 11.3 | 14.5 | 0.00 | 0.00 | 0.00 | 39 | 1017.5 |
| 20260503185243 | 15 | 279 | 8.0 | 16.1 | 0.00 | 0.00 | 0.00 | 35 | 1017.5 |
| 20260503184738 | 16 | 255 | 4.8 | 12.9 | 0.00 | 0.00 | 0.00 | 37 | 1017.5 |
| 20260503184235 | 15 | 203 | 0.0 | 12.9 | 0.00 | 0.00 | 0.00 | 37 | 1017.4 |
| 20260503183731 | 16 | 233 | 0.0 | 11.3 | 0.00 | 0.00 | 0.00 | 38 | 1017.7 |
| 20260503183229 | 15 | 115 | 3.2 | 9.7 | 0.00 | 0.00 | 0.00 | 39 | 1017.6 |
| 20260503182726 | 15 | 150 | 6.4 | 14.5 | 0.00 | 0.00 | 0.00 | 37 | 1017.8 |
| 20260503182225 | 15 | 277 | 9.7 | 14.5 | 0.00 | 0.00 | 0.00 | 40 | 1017.9 |
| 20260503181721 | 15 | 256 | 8.0 | 8.0 | 0.00 | 0.00 | 0.00 | 42 | 1017.9 |
| 20260503181218 | 14 | 53 | 3.2 | 9.7 | 0.00 | 0.00 | 0.00 | 37 | 1018.0 |
| 20260503180714 | 14 | 274 | 8.0 | 8.0 | 0.00 | 0.00 | 0.00 | 39 | 1017.8 |
| 20260503180213 | 14 | 261 | 9.7 | 14.5 | 0.00 | 0.00 | 0.00 | 35 | 1018.1 |
| 20260503175710 | 15 | 330 | 8.0 | 24.1 | 0.00 | 0.00 | 0.00 | 39 | 1018.1 |
| 20260503175208 | 15 | 63 | 8.0 | 11.3 | 0.00 | 0.00 | 0.00 | 45 | 1018.1 |
| 20260503174703 | 15 | 254 | 1.6 | 16.1 | 0.00 | 0.00 | 0.00 | 44 | 1018.0 |
| 20260503174201 | 13 | 172 | 4.8 | 9.7 | 0.00 | 0.00 | 0.00 | 38 | 1018.3 |
| 20260503173656 | 14 | 264 | 0.0 | 8.0 | 0.00 | 0.00 | 0.00 | 40 | 1018.4 |
| 20260503173153 | 15 | 270 | 8.0 | 9.7 | 0.00 | 0.00 | 0.00 | 38 | 1018.4 |
| 20260503172650 | 14 | 270 | 4.8 | 12.9 | 0.00 | 0.00 | 0.00 | 40 | 1018.5 |
| 20260503172147 | 14 | 77 | 1.6 | 9.7 | 0.00 | 0.00 | 0.00 | 40 | 1018.3 |
| 20260503171643 | 13 | 225 | 4.8 | 9.7 | 0.00 | 0.00 | 0.00 | 45 | 1018.6 |
| 20260503171140 | 13 | 301 | 0.0 | 12.9 | 0.00 | 0.00 | 0.00 | 38 | 1018.8 |
| 20260503170637 | 13 | 84 | 1.6 | 14.5 | 0.00 | 0.00 | 0.00 | 40 | 1018.8 |
| 20260503170134 | 13 | 286 | 6.4 | 11.3 | 0.00 | 0.00 | 0.00 | 43 | 1018.7 |
| 20260503150525 | 11 | 210 | 4.8 | 8.0 | 0.00 | 0.00 | 0.00 | 46 | 1020.1 |
| 20260503131419 | 7 | 266 | 8.0 | 12.9 | 0.00 | 0.00 | 0.00 | 67 | 1020.2 |
| 20260503130915 | 8 | 139 | 9.7 | 14.5 | 0.00 | 0.00 | 0.00 | 68 | 1020.0 |
| 20260503130413 | 7 | 78 | 1.6 | 8.0 | 0.00 | 0.00 | 0.00 | 70 | 1020.4 |
| 20260503110817 | 0 | 102 | 1.6 | 3.2 | 0.00 | 0.00 | 0.00 | 97 | 1019.5 |
| 20260503110314 | 0 | 90 | 0.0 | 3.2 | 0.00 | 0.00 | 0.00 | 97 | 1019.6 |
| 20260503100240 | 0 | 90 | 1.6 | 1.6 | 0.00 | 0.00 | 0.00 | 96 | 1018.7 |
| 20260503090159 | 0 | 105 | 1.6 | 3.2 | 0.00 | 0.00 | 0.00 | 96 | 1018.5 |
| 20260503081636 | 0 | 82 | 0.0 | 0.0 | 0.00 | 0.00 | 0.00 | 95 | 1018.4 |
| 20260503081132 | 0 | 82 | 0.0 | 0.0 | 0.00 | 0.00 | 0.00 | 95 | 1018.4 |
| 20260503080628 | 0 | 69 | 0.0 | 3.2 | 0.00 | 0.00 | 0.00 | 95 | 1018.4 |